{"data":{"norad_id":63515,"intl_designator":"2025-071Y","name":"STARLINK-33796","alt_names":[],"object_type":"PAYLOAD","status":"ACTIVE","operator":null,"country":"US","launch_date":"2025-04-07","launch_site_code":"AFWTR","launch_vehicle":null,"mission":null,"orbit_class":"UNKNOWN","rcs_meters":null,"size_class":null,"mass_kg":null,"dimensions":null,"purposes":["comms"],"wikipedia_slug":null,"has_3d_model":false,"image_url":null,"decayed_at":null,"tle_current":{"epoch":"2026-05-24T17:22:43.642272Z","epoch_age_seconds":109407,"freshness":"FRESH","line1":"1 63515U 25071Y   26144.72411623  .00009266  00000+0  32456-3 0  9993","line2":"2 63515  53.1606 146.5281 0001181  83.9270 276.1866 15.30200532 64412","mean_motion":15.30200532,"eccentricity":0.0001181,"inclination_deg":53.1606,"raan_deg":146.5281,"arg_perigee_deg":83.927,"mean_anomaly_deg":276.1866,"bstar":0.00032456,"rev_number":6441,"period_min":94.105312989134,"perigee_km":474.40410027187,"apogee_km":476.02286165548,"semimajor_km":6853.3504809637,"source":"CELESTRAK","updated_at":"2026-05-25T13:38:20.038752Z"}}}